Welcome to Northern Hawkes Bay. New Zealand.
PWS Header
      nz Flag



Hit Counter


W3C Valid W3C Valid logo


    Wairoa

Select any of the Stations below to visit their websites.










Historic Data from Weather Underground
Select the location of interest below. Wairoa is the default. Please have patience, this Data is slow to load in.
Northern Hawkes Bay Historical Data
Daily Summary for May 17, 2017 Units:  Metric    English   Both
« Previous Day
Next Day »
Daily Weekly Monthly Yearly Custom
  High: Low: Average:
Temperature: 20.1 °C 13.3 °C 16.4 °C
Dew Point: 15.3 °C 8.2 °C 11.8 °C
Humidity: 96% 64% 75%
Wind Speed: 18.3km/h 0.0km/h 2.4km/h
Wind Gust: 31.7km/h - -
Wind- - SE
Pressure: 1023.2 hPa 1008.7 hPa -
Precipitation: 1.0 mm    
Historical Graphs
 
 
Tabular Data for May 17, 2017
Time Temperature Dew Point Pressure Wind Wind Speed Wind Gust Humidity Rainfall Rate (Hourly) solar
00:03 14.7 °C 8.4 °C 1023.2 hPa Calm     66% 0.0 mm 0 W/m2
00:08 14.6 °C 8.3 °C 1023.2 hPa Calm     66% 0.0 mm 0 W/m2
00:13 14.6 °C 8.6 °C 1022.9 hPa Calm     67% 0.0 mm 0 W/m2
00:18 14.5 °C 8.4 °C 1023.2 hPa Calm     67% 0.0 mm 0 W/m2
00:23 14.4 °C 8.3 °C 1023.2 hPa Calm     67% 0.0 mm 0 W/m2
00:28 14.5 °C 8.4 °C 1023.2 hPa Calm     67% 0.0 mm 0 W/m2
00:33 14.6 °C 8.3 °C 1023.2 hPa Calm     66% 0.0 mm 0 W/m2
00:38 14.5 °C 8.2 °C 1023.2 hPa Calm     66% 0.0 mm 0 W/m2
00:43 14.6 °C 8.3 °C 1023.2 hPa Calm     66% 0.0 mm 0 W/m2
00:48 14.6 °C 8.3 °C 1022.9 hPa Calm     66% 0.0 mm 0 W/m2
00:53 14.7 °C 8.4 °C 1022.9 hPa Calm     66% 0.0 mm 0 W/m2
00:58 14.7 °C 8.4 °C 1023.2 hPa Calm     66% 0.0 mm 0 W/m2
01:03 14.6 °C 8.3 °C 1022.9 hPa Calm     66% 0.0 mm 0 W/m2
01:09 14.5 °C 8.2 °C 1022.9 hPa Calm     66% 0.0 mm 0 W/m2
01:14 14.5 °C 8.2 °C 1022.9 hPa Calm     66% 0.0 mm 0 W/m2
01:19 14.7 °C 8.4 °C 1022.9 hPa Calm     66% 0.0 mm 0 W/m2
01:24 14.6 °C 8.3 °C 1022.9 hPa Calm     66% 0.0 mm 0 W/m2
01:29 14.6 °C 8.3 °C 1022.6 hPa Calm     66% 0.0 mm 0 W/m2
01:34 14.6 °C 8.3 °C 1022.2 hPa Calm     66% 0.0 mm 0 W/m2
01:39 14.5 °C 8.4 °C 1022.6 hPa Calm     67% 0.0 mm 0 W/m2
01:44 14.5 °C 8.2 °C 1022.6 hPa Calm     66% 0.0 mm 0 W/m2
01:49 14.6 °C 8.3 °C 1022.6 hPa Calm     66% 0.0 mm 0 W/m2
01:54 14.7 °C 8.4 °C 1022.6 hPa Calm     66% 0.0 mm 0 W/m2
01:59 14.8 °C 8.3 °C 1022.2 hPa Calm     65% 0.0 mm 0 W/m2
02:04 14.9 °C 8.4 °C 1022.2 hPa Calm     65% 0.0 mm 0 W/m2
02:09 14.9 °C 8.4 °C 1022.2 hPa Calm     65% 0.0 mm 0 W/m2
02:14 15.0 °C 8.3 °C 1022.2 hPa Calm     64% 0.0 mm 0 W/m2
02:19 15.0 °C 8.3 °C 1022.2 hPa Calm     64% 0.0 mm 0 W/m2
02:24 14.9 °C 8.4 °C 1021.9 hPa Calm     65% 0.0 mm 0 W/m2
02:30 14.8 °C 8.5 °C 1021.9 hPa Calm     66% 0.0 mm 0 W/m2
02:35 14.7 °C 8.4 °C 1021.6 hPa Calm     66% 0.0 mm 0 W/m2
02:40 14.6 °C 8.3 °C 1021.6 hPa Calm     66% 0.0 mm 0 W/m2
02:45 14.5 °C 8.4 °C 1021.6 hPa Calm     67% 0.0 mm 0 W/m2
02:50 14.4 °C 8.3 °C 1021.2 hPa Calm     67% 0.0 mm 0 W/m2
02:55 14.3 °C 8.5 °C 1021.2 hPa Calm     68% 0.0 mm 0 W/m2
03:00 14.4 °C 8.6 °C 1020.9 hPa Calm     68% 0.0 mm 0 W/m2
03:05 14.5 °C 8.4 °C 1020.9 hPa Calm     67% 0.0 mm 0 W/m2
03:10 14.5 °C 8.4 °C 1020.9 hPa Calm     67% 0.0 mm 0 W/m2
03:15 14.5 °C 8.2 °C 1020.9 hPa Calm     66% 0.0 mm 0 W/m2
03:20 14.3 °C 8.3 °C 1020.5 hPa Calm     67% 0.0 mm 0 W/m2
03:25 14.1 °C 8.3 °C 1020.5 hPa Calm     68% 0.0 mm 0 W/m2
03:30 13.9 °C 8.5 °C 1020.5 hPa Calm     70% 0.0 mm 0 W/m2
03:35 14.1 °C 8.5 °C 1020.5 hPa Calm     69% 0.0 mm 0 W/m2
03:40 14.2 °C 8.6 °C 1020.5 hPa Calm     69% 0.0 mm 0 W/m2
03:45 14.3 °C 8.7 °C 1020.2 hPa Calm     69% 0.0 mm 0 W/m2
03:50 14.2 °C 8.6 °C 1020.2 hPa Calm     69% 0.0 mm 0 W/m2
03:55 14.2 °C 8.6 °C 1020.2 hPa Calm     69% 0.0 mm 0 W/m2
04:00 14.2 °C 8.6 °C 1020.2 hPa Calm     69% 0.0 mm 0 W/m2
04:05 14.1 °C 8.5 °C 1020.2 hPa Calm     69% 0.0 mm 0 W/m2
04:10 14.0 °C 8.6 °C 1020.2 hPa Calm     70% 0.0 mm 0 W/m2
04:15 14.0 °C 8.6 °C 1019.9 hPa Calm     70% 0.0 mm 0 W/m2
04:20 13.9 °C 8.7 °C 1019.9 hPa Calm     71% 0.0 mm 0 W/m2
04:25 13.9 °C 8.7 °C 1019.9 hPa Calm     71% 0.0 mm 0 W/m2
04:30 13.9 °C 8.9 °C 1019.9 hPa Calm     72% 0.0 mm 0 W/m2
04:35 13.9 °C 8.9 °C 1019.5 hPa Calm     72% 0.0 mm 0 W/m2
04:40 14.0 °C 8.8 °C 1019.5 hPa Calm     71% 0.0 mm 0 W/m2
04:45 14.0 °C 8.8 °C 1019.5 hPa Calm     71% 0.0 mm 0 W/m2
04:50 14.1 °C 8.9 °C 1019.5 hPa Calm     71% 0.0 mm 0 W/m2
04:55 14.1 °C 8.9 °C 1019.5 hPa Calm     71% 0.0 mm 0 W/m2
05:00 14.2 °C 9.0 °C 1019.5 hPa Calm     71% 0.0 mm 0 W/m2
05:05 14.2 °C 9.0 °C 1019.5 hPa Calm     71% 0.0 mm 0 W/m2
05:10 14.3 °C 8.9 °C 1019.5 hPa Calm     70% 0.0 mm 0 W/m2
05:15 14.3 °C 8.9 °C 1019.5 hPa Calm     70% 0.0 mm 0 W/m2
05:20 14.2 °C 9.0 °C 1019.2 hPa Calm     71% 0.0 mm 0 W/m2
05:25 13.9 °C 9.3 °C 1019.5 hPa Calm     74% 0.0 mm 0 W/m2
05:30 13.8 °C 9.4 °C 1019.2 hPa Calm     75% 0.0 mm 0 W/m2
05:35 13.7 °C 9.3 °C 1019.2 hPa Calm     75% 0.0 mm 0 W/m2
05:40 13.6 °C 9.4 °C 1019.2 hPa Calm     76% 0.0 mm 0 W/m2
05:45 13.5 °C 9.3 °C 1019.2 hPa Calm     76% 0.0 mm 0 W/m2
05:50 13.4 °C 9.4 °C 1019.2 hPa Calm     77% 0.0 mm 0 W/m2
05:55 13.3 °C 9.6 °C 1019.2 hPa Calm     78% 0.0 mm 0 W/m2
06:00 13.4 °C 9.7 °C 1019.2 hPa Calm     78% 0.0 mm 0 W/m2
06:05 13.6 °C 9.8 °C 1019.2 hPa Calm     78% 0.0 mm 0 W/m2
06:10 13.7 °C 9.9 °C 1018.8 hPa Calm     78% 0.0 mm 0 W/m2
06:15 13.6 °C 9.8 °C 1018.8 hPa Calm     78% 0.0 mm 0 W/m2
06:20 13.7 °C 9.9 °C 1018.8 hPa Calm     78% 0.0 mm 0 W/m2
06:25 13.8 °C 10.1 °C 1018.5 hPa Calm     78% 0.0 mm 0 W/m2
06:30 13.9 °C 10.1 °C 1018.5 hPa Calm     78% 0.0 mm 0 W/m2
06:35 14.1 °C 10.1 °C 1018.5 hPa Calm     77% 0.0 mm 0 W/m2
06:40 14.5 °C 10.5 °C 1018.2 hPa Calm     77% 0.0 mm 0 W/m2
06:45 14.9 °C 10.7 °C 1018.2 hPa Calm     76% 0.0 mm 0 W/m2
06:50 15.2 °C 10.4 °C 1018.2 hPa Calm     73% 0.0 mm 0 W/m2
06:55 15.1 °C 10.3 °C 1018.2 hPa Calm     73% 0.0 mm 0 W/m2
07:00 14.7 °C 10.3 °C 1017.8 hPa Calm     75% 0.0 mm 0 W/m2
07:05 14.4 °C 10.2 °C 1017.8 hPa Calm     76% 0.0 mm 0 W/m2
07:10 14.4 °C 10.2 °C 1018.2 hPa Calm     76% 0.0 mm 0 W/m2
07:15 14.3 °C 10.3 °C 1018.2 hPa Calm     77% 0.0 mm 0 W/m2
07:20 14.4 °C 10.4 °C 1018.2 hPa Calm     77% 0.0 mm 3 W/m2
07:25 14.4 °C 10.4 °C 1018.2 hPa Calm     77% 0.0 mm 4 W/m2
07:30 14.4 °C 10.4 °C 1017.8 hPa Calm     77% 0.0 mm 6 W/m2
07:35 14.5 °C 10.5 °C 1017.8 hPa Calm     77% 0.0 mm 9 W/m2
07:40 14.7 °C 10.7 °C 1017.8 hPa Calm     77% 0.0 mm 13 W/m2
07:45 15.2 °C 10.8 °C 1017.8 hPa Calm     75% 0.0 mm 16 W/m2
07:50 15.6 °C 11.0 °C 1017.8 hPa Calm     74% 0.0 mm 21 W/m2
07:55 15.8 °C 11.0 °C 1017.8 hPa Calm     73% 0.0 mm 22 W/m2
08:00 15.8 °C 11.0 °C 1017.8 hPa Calm     73% 0.0 mm 24 W/m2
08:05 15.9 °C 11.1 °C 1017.5 hPa Calm     73% 0.0 mm 24 W/m2
08:10 15.8 °C 11.0 °C 1017.5 hPa Calm     73% 0.0 mm 21 W/m2
08:15 15.8 °C 11.0 °C 1017.5 hPa Calm     73% 0.0 mm 20 W/m2
08:20 15.8 °C 11.0 °C 1017.5 hPa Calm     73% 0.0 mm 21 W/m2
08:22 15.8 °C 11.0 °C 1017.5 hPa Calm     73% 0.0 mm 23 W/m2
08:27 15.8 °C 11.0 °C 1017.2 hPa Calm     73% 0.0 mm 28 W/m2
08:32 16.0 °C 10.9 °C 1017.2 hPa Calm     72% 0.0 mm 34 W/m2
08:37 16.1 °C 10.8 °C 1017.5 hPa Calm     71% 0.0 mm 39 W/m2
08:42 16.1 °C 11.1 °C 1017.2 hPa Calm     72% 0.0 mm 35 W/m2
08:47 16.0 °C 10.9 °C 1017.2 hPa Calm     72% 0.0 mm 31 W/m2
08:52 16.2 °C 10.9 °C 1017.5 hPa Calm     71% 0.0 mm 30 W/m2
08:57 16.2 °C 11.2 °C 1017.2 hPa Calm     72% 0.0 mm 33 W/m2
09:02 16.2 °C 11.2 °C 1017.2 hPa Calm     72% 0.0 mm 40 W/m2
09:07 16.2 °C 11.2 °C 1016.8 hPa Calm     72% 0.0 mm 46 W/m2
09:12 16.5 °C 11.4 °C 1016.8 hPa Calm     72% 0.0 mm 61 W/m2
09:17 16.5 °C 11.4 °C 1016.8 hPa Calm     72% 0.0 mm 61 W/m2
09:22 16.6 °C 11.6 °C 1016.8 hPa Calm     72% 0.0 mm 54 W/m2
09:27 16.7 °C 11.6 °C 1016.8 hPa Calm     72% 0.0 mm 54 W/m2
09:32 16.8 °C 11.7 °C 1016.5 hPa Calm     72% 0.0 mm 54 W/m2
09:37 16.8 °C 11.7 °C 1016.5 hPa Calm     72% 0.0 mm 64 W/m2
09:42 16.8 °C 11.7 °C 1016.5 hPa Calm     72% 0.0 mm 71 W/m2
09:47 16.8 °C 11.7 °C 1016.5 hPa Calm     72% 0.0 mm 64 W/m2
09:53 16.7 °C 11.6 °C 1016.5 hPa Calm     72% 0.0 mm 67 W/m2
09:58 16.9 °C 12.1 °C 1016.5 hPa Calm     73% 0.0 mm 83 W/m2
10:03 17.3 °C 12.0 °C 1016.5 hPa Calm     71% 0.0 mm 84 W/m2
10:25 17.7 °C 12.4 °C 1016.1 hPa Calm     71% 0.0 mm 92 W/m2
10:30 17.7 °C 12.4 °C 1016.1 hPa Calm     71% 0.0 mm 83 W/m2
10:36 17.8 °C 12.5 °C 1016.1 hPa Calm     71% 0.0 mm 75 W/m2
10:41 17.8 °C 12.5 °C 1016.1 hPa Calm     71% 0.0 mm 82 W/m2
10:46 17.9 °C 12.6 °C 1016.1 hPa Calm     71% 0.0 mm 99 W/m2
10:51 17.9 °C 12.6 °C 1016.1 hPa Calm     71% 0.0 mm 116 W/m2
10:56 18.0 °C 12.4 °C 1015.8 hPa Calm     70% 0.0 mm 127 W/m2
11:01 18.0 °C 12.7 °C 1015.8 hPa Calm     71% 0.0 mm 119 W/m2
11:06 18.0 °C 12.7 °C 1015.5 hPa Calm     71% 0.0 mm 110 W/m2
11:11 18.0 °C 12.7 °C 1015.5 hPa Calm     71% 0.0 mm 125 W/m2
11:16 18.0 °C 12.7 °C 1015.5 hPa Calm   1.1 km/h 71% 0.0 mm 131 W/m2
11:21 18.1 °C 12.8 °C 1015.5 hPa Calm   1.1 km/h 71% 0.0 mm 140 W/m2
11:26 18.3 °C 13.2 °C 1015.5 hPa Calm     72% 0.0 mm 147 W/m2
11:31 18.3 °C 12.9 °C 1015.5 hPa Calm     71% 0.0 mm 171 W/m2
11:36 18.5 °C 12.9 °C 1015.1 hPa Calm     70% 0.0 mm 220 W/m2
11:41 18.7 °C 13.1 °C 1015.1 hPa Calm     70% 0.0 mm 244 W/m2
11:47 19.1 °C 13.1 °C 1015.1 hPa Calm   1.1 km/h 68% 0.0 mm 320 W/m2
11:52 19.7 °C 13.7 °C 1015.1 hPa Calm   1.1 km/h 68% 0.0 mm 315 W/m2
11:57 20.1 °C 13.3 °C 1015.1 hPa Calm     65% 0.0 mm 321 W/m2
12:00 20.1 °C 13.3 °C 1015.1 hPa Calm     65% 0.0 mm 284 W/m2
12:05 20.1 °C 13.3 °C 1014.8 hPa Calm     65% 0.0 mm 309 W/m2
12:10 20.0 °C 13.2 °C 1014.4 hPa Calm     65% 0.0 mm 272 W/m2
12:15 20.0 °C 13.4 °C 1014.8 hPa Calm     66% 0.0 mm 216 W/m2
12:20 20.0 °C 13.4 °C 1014.1 hPa Calm     66% 0.0 mm 232 W/m2
12:25 20.0 °C 13.4 °C 1014.1 hPa Calm     66% 0.0 mm 242 W/m2
12:30 19.9 °C 13.4 °C 1014.1 hPa Calm     66% 0.0 mm 287 W/m2
12:35 20.1 °C 13.6 °C 1013.4 hPa Calm   1.1 km/h 66% 0.0 mm 260 W/m2
12:40 20.0 °C 13.2 °C 1013.8 hPa Calm   1.1 km/h 65% 0.0 mm 202 W/m2
12:45 19.3 °C 13.1 °C 1013.8 hPa Calm   1.1 km/h 67% 0.0 mm 191 W/m2
12:50 19.1 °C 13.3 °C 1013.8 hPa Calm   1.1 km/h 69% 0.0 mm 208 W/m2
12:55 19.3 °C 13.3 °C 1013.8 hPa Calm   1.1 km/h 68% 0.0 mm 189 W/m2
13:00 19.1 °C 13.3 °C 1013.4 hPa Calm   1.1 km/h 69% 0.0 mm 152 W/m2
13:05 19.0 °C 13.4 °C 1013.4 hPa Calm   1.1 km/h 70% 0.0 mm 175 W/m2
13:10 18.8 °C 13.9 °C 1013.4 hPa Calm     73% 0.0 mm 167 W/m2
13:15 18.7 °C 14.0 °C 1013.1 hPa Calm   1.1 km/h 74% 0.0 mm 202 W/m2
13:34 19.2 °C 13.6 °C 1012.8 hPa Calm     70% 0.0 mm 193 W/m2
13:39 19.4 °C 13.8 °C 1012.8 hPa Calm     70% 0.0 mm 245 W/m2
13:44 19.7 °C 13.9 °C 1012.4 hPa Calm     69% 0.0 mm 215 W/m2
13:49 19.7 °C 13.7 °C 1012.8 hPa Calm   1.1 km/h 68% 0.0 mm 174 W/m2
13:54 19.6 °C 13.8 °C 1012.4 hPa Calm   1.1 km/h 69% 0.0 mm 173 W/m2
13:59 19.5 °C 13.7 °C 1012.4 hPa Calm     69% 0.0 mm 175 W/m2
14:04 19.5 °C 13.9 °C 1012.4 hPa Calm     70% 0.0 mm 176 W/m2
14:09 19.5 °C 13.9 °C 1012.1 hPa Calm     70% 0.0 mm 155 W/m2
14:14 19.4 °C 13.8 °C 1012.1 hPa Calm     70% 0.0 mm 166 W/m2
14:19 19.5 °C 14.1 °C 1012.1 hPa Calm     71% 0.0 mm 181 W/m2
14:24 19.6 °C 14.2 °C 1012.1 hPa Calm     71% 0.0 mm 157 W/m2
14:29 19.6 °C 14.2 °C 1012.1 hPa Calm     71% 0.0 mm 140 W/m2
14:34 19.5 °C 14.1 °C 1012.1 hPa Calm     71% 0.0 mm 137 W/m2
14:39 19.4 °C 14.0 °C 1012.1 hPa Calm     71% 0.0 mm 132 W/m2
14:45 19.3 °C 14.1 °C 1011.7 hPa Calm     72% 0.0 mm 128 W/m2
14:50 19.3 °C 14.1 °C 1011.7 hPa Calm     72% 0.0 mm 114 W/m2
14:55 19.3 °C 14.1 °C 1011.7 hPa Calm     72% 0.0 mm 119 W/m2
15:22 20.1 °C 14.2 °C 1011.7 hPa NE 11.1 km/h 14.8 km/h 69% 0.0 mm 96 W/m2
15:52 19.7 °C 13.6 °C 1011.4 hPa East 12.2 km/h 18.3 km/h 68% 0.0 mm 89 W/m2
15:57 19.7 °C 13.9 °C 1011.4 hPa NE 11.1 km/h 27.0 km/h 69% 0.0 mm 94 W/m2
16:02 19.6 °C 13.8 °C 1011.4 hPa NE 9.7 km/h 27.0 km/h 69% 0.0 mm 81 W/m2
16:07 19.6 °C 13.8 °C 1011.1 hPa NE 9.7 km/h 18.3 km/h 69% 0.0 mm 97 W/m2
16:12 19.6 °C 13.8 °C 1011.1 hPa NE 17.2 km/h 23.3 km/h 69% 0.0 mm 85 W/m2
16:17 19.6 °C 13.8 °C 1011.1 hPa ENE 15.8 km/h 23.3 km/h 69% 0.0 mm 72 W/m2
16:22 19.6 °C 13.8 °C 1011.1 hPa ENE 11.1 km/h 23.3 km/h 69% 0.0 mm 74 W/m2
16:27 19.6 °C 13.8 °C 1011.1 hPa NE 8.7 km/h 23.3 km/h 69% 0.0 mm 45 W/m2
16:32 19.4 °C 13.8 °C 1011.1 hPa NE 11.1 km/h 25.6 km/h 70% 0.0 mm 17 W/m2
16:37 19.2 °C 13.6 °C 1011.1 hPa NE 9.7 km/h 25.6 km/h 70% 0.0 mm 14 W/m2
16:42 19.1 °C 13.7 °C 1011.1 hPa ENE 11.1 km/h 19.5 km/h 71% 0.0 mm 13 W/m2
16:47 19.0 °C 13.8 °C 1010.7 hPa ENE 18.3 km/h 24.5 km/h 72% 0.0 mm 11 W/m2
16:52 19.0 °C 13.8 °C 1010.7 hPa ENE 15.8 km/h 24.5 km/h 72% 0.0 mm 9 W/m2
16:57 18.8 °C 14.1 °C 1010.7 hPa ENE 7.2 km/h 24.5 km/h 74% 0.0 mm 6 W/m2
17:02 18.6 °C 14.1 °C 1010.7 hPa NE 8.7 km/h 19.5 km/h 75% 0.0 mm 3 W/m2
17:07 18.5 °C 14.0 °C 1010.4 hPa NE 11.1 km/h 18.3 km/h 75% 0.0 mm 2 W/m2
17:12 18.5 °C 14.0 °C 1010.4 hPa NE 8.7 km/h 20.9 km/h 75% 0.0 mm 1 W/m2
17:17 18.5 °C 14.0 °C 1010.7 hPa NE 13.4 km/h 24.5 km/h 75% 0.0 mm 0 W/m2
17:22 18.5 °C 14.0 °C 1010.7 hPa NE 12.2 km/h 24.5 km/h 75% 0.0 mm 0 W/m2
17:27 18.5 °C 14.0 °C 1010.4 hPa NE 11.1 km/h 21.9 km/h 75% 0.0 mm 0 W/m2
17:32 18.4 °C 13.9 °C 1010.4 hPa NE 9.7 km/h 21.9 km/h 75% 0.0 mm 0 W/m2
17:37 18.4 °C 13.9 °C 1010.7 hPa NE 9.7 km/h 15.8 km/h 75% 0.0 mm 0 W/m2
17:42 18.4 °C 13.9 °C 1010.4 hPa NE 9.7 km/h 15.8 km/h 75% 0.0 mm 0 W/m2
17:47 18.4 °C 13.9 °C 1010.4 hPa NE 3.5 km/h 15.8 km/h 75% 0.0 mm 0 W/m2
17:52 18.4 °C 14.1 °C 1010.7 hPa NE 5.0 km/h 15.8 km/h 76% 0.0 mm 0 W/m2
17:57 18.4 °C 14.1 °C 1010.4 hPa NE 7.2 km/h 13.4 km/h 76% 0.0 mm 0 W/m2
18:02 18.3 °C 14.0 °C 1010.7 hPa NE 6.1 km/h 12.2 km/h 76% 0.0 mm 0 W/m2
18:07 18.3 °C 14.0 °C 1010.4 hPa NE 6.1 km/h 12.2 km/h 76% 0.0 mm 0 W/m2
18:12 18.3 °C 14.0 °C 1010.4 hPa NE 8.7 km/h 12.2 km/h 76% 0.0 mm 0 W/m2
18:17 18.4 °C 14.1 °C 1010.4 hPa NE 3.5 km/h 12.2 km/h 76% 0.0 mm 0 W/m2
18:22 18.4 °C 14.1 °C 1010.4 hPa ENE 9.7 km/h 18.3 km/h 76% 0.0 mm 0 W/m2
18:27 18.7 °C 14.4 °C 1010.4 hPa NNE 6.1 km/h 18.3 km/h 76% 0.0 mm 0 W/m2
18:32 18.8 °C 14.3 °C 1010.0 hPa NNE 7.2 km/h 19.5 km/h 75% 0.0 mm 0 W/m2
18:37 18.8 °C 14.3 °C 1010.0 hPa NNE 11.1 km/h 19.5 km/h 75% 0.0 mm 0 W/m2
18:42 18.9 °C 14.4 °C 1010.0 hPa NNE 9.7 km/h 21.9 km/h 75% 0.0 mm 0 W/m2
18:47 19.0 °C 14.3 °C 1010.0 hPa NNE 8.7 km/h 24.5 km/h 74% 0.0 mm 0 W/m2
18:52 19.1 °C 14.2 °C 1010.0 hPa North 14.8 km/h 28.0 km/h 73% 0.0 mm 0 W/m2
18:57 19.2 °C 14.1 °C 1010.0 hPa North 11.1 km/h 28.0 km/h 72% 0.0 mm 0 W/m2
19:02 19.2 °C 14.1 °C 1010.0 hPa NNE 17.2 km/h 28.0 km/h 72% 0.0 mm 0 W/m2
19:03 19.2 °C 14.1 °C 1010.0 hPa NNE 17.2 km/h 30.6 km/h 72% 0.0 mm 0 W/m2
19:08 19.2 °C 14.1 °C 1010.0 hPa North 14.8 km/h 31.7 km/h 72% 0.0 mm 0 W/m2
19:13 19.1 °C 14.2 °C 1010.4 hPa North 12.2 km/h 31.7 km/h 73% 0.0 mm 0 W/m2
19:18 19.1 °C 14.2 °C 1010.7 hPa NNW 12.2 km/h 28.0 km/h 73% 0.0 mm 0 W/m2
19:23 18.8 °C 14.3 °C 1010.7 hPa NW 12.2 km/h 28.0 km/h 75% 0.0 mm 0 W/m2
19:28 18.0 °C 14.3 °C 1011.1 hPa WNW 7.2 km/h 19.5 km/h 79% 0.0 mm 0 W/m2
19:33 17.3 °C 14.4 °C 1011.4 hPa WNW 11.1 km/h 19.5 km/h 83% 0.3 mm 0 W/m2
19:38 16.8 °C 14.4 °C 1011.4 hPa WNW 9.7 km/h 17.2 km/h 86% 0.5 mm 0 W/m2
19:43 16.5 °C 14.7 °C 1011.1 hPa NW 3.5 km/h 14.8 km/h 89% 1.0 mm 0 W/m2
19:48 16.3 °C 15.0 °C 1011.1 hPa NNW 5.0 km/h 12.2 km/h 92% 1.0 mm 0 W/m2
19:53 16.2 °C 14.9 °C 1011.1 hPa NNE 2.6 km/h 11.1 km/h 92% 1.0 mm 0 W/m2
19:58 16.1 °C 15.0 °C 1011.1 hPa NNE 5.0 km/h 11.1 km/h 93% 1.0 mm 0 W/m2
20:03 16.0 °C 15.1 °C 1011.1 hPa North 3.5 km/h 8.7 km/h 94% 1.0 mm 0 W/m2
20:08 16.0 °C 15.1 °C 1011.1 hPa Calm   6.1 km/h 94% 1.0 mm 0 W/m2
20:13 16.0 °C 15.1 °C 1010.7 hPa NNE 1.1 km/h 6.1 km/h 94% 1.0 mm 0 W/m2
20:18 15.9 °C 15.3 °C 1010.7 hPa Calm   6.1 km/h 96% 1.0 mm 0 W/m2
20:23 15.8 °C 15.2 °C 1010.7 hPa Calm   6.1 km/h 96% 1.0 mm 0 W/m2
20:28 15.7 °C 15.1 °C 1010.7 hPa SSW 6.1 km/h 8.7 km/h 96% 1.0 mm 0 W/m2
20:33 15.6 °C 15.0 °C 1010.7 hPa SSW 6.1 km/h 8.7 km/h 96% 0.5 mm 0 W/m2
20:38 15.6 °C 15.0 °C 1010.7 hPa South 3.5 km/h 8.7 km/h 96% 0.3 mm 0 W/m2
20:43 15.5 °C 14.9 °C 1010.7 hPa South 6.1 km/h 9.7 km/h 96% 0.0 mm 0 W/m2
20:49 15.5 °C 14.9 °C 1010.7 hPa SE 6.1 km/h 9.7 km/h 96% 0.0 mm 0 W/m2
20:54 16.0 °C 15.1 °C 1010.7 hPa North 1.1 km/h 9.7 km/h 94% 0.0 mm 0 W/m2
20:59 16.1 °C 14.8 °C 1010.7 hPa NE 2.6 km/h 9.7 km/h 92% 0.0 mm 0 W/m2
21:04 16.1 °C 14.3 °C 1010.7 hPa Calm   5.0 km/h 89% 0.0 mm 0 W/m2
21:09 16.0 °C 13.8 °C 1010.7 hPa Calm   5.0 km/h 87% 0.0 mm 0 W/m2
21:14 15.9 °C 13.7 °C 1010.7 hPa NNE 3.5 km/h 6.1 km/h 87% 0.0 mm 0 W/m2
21:19 16.2 °C 13.5 °C 1010.7 hPa North 2.6 km/h 6.1 km/h 84% 0.0 mm 0 W/m2
21:24 16.1 °C 13.2 °C 1010.7 hPa NNW 1.1 km/h 6.1 km/h 83% 0.0 mm 0 W/m2
21:29 16.0 °C 13.1 °C 1010.7 hPa West 1.1 km/h 3.5 km/h 83% 0.0 mm 0 W/m2
21:34 15.9 °C 13.4 °C 1010.7 hPa West 5.0 km/h 7.2 km/h 85% 0.0 mm 0 W/m2
21:36 16.1 °C 13.4 °C 1010.7 hPa WNW 2.6 km/h 7.2 km/h 84% 0.0 mm 0 W/m2
21:41 16.2 °C 13.1 °C 1010.4 hPa Calm   7.2 km/h 82% 0.0 mm 0 W/m2
21:46 16.0 °C 12.9 °C 1010.7 hPa Calm   5.0 km/h 82% 0.0 mm 0 W/m2
21:51 15.5 °C 12.6 °C 1010.7 hPa Calm   3.5 km/h 83% 0.0 mm 0 W/m2
21:56 15.3 °C 12.6 °C 1010.4 hPa NE 3.5 km/h 5.0 km/h 84% 0.0 mm 0 W/m2
22:01 15.4 °C 12.9 °C 1010.4 hPa NE 1.1 km/h 6.1 km/h 85% 0.0 mm 0 W/m2
22:06 15.0 °C 12.5 °C 1010.4 hPa NNE 2.6 km/h 6.1 km/h 85% 0.0 mm 0 W/m2
22:11 14.6 °C 12.4 °C 1010.0 hPa North 3.5 km/h 7.2 km/h 87% 0.0 mm 0 W/m2
22:16 14.6 °C 12.8 °C 1010.0 hPa North 3.5 km/h 9.7 km/h 89% 0.0 mm 0 W/m2
22:21 14.7 °C 13.1 °C 1010.0 hPa NNE 3.5 km/h 9.7 km/h 90% 0.0 mm 0 W/m2
22:26 14.8 °C 13.2 °C 1010.0 hPa NNE 3.5 km/h 7.2 km/h 90% 0.0 mm 0 W/m2
22:31 14.5 °C 12.7 °C 1010.0 hPa North 2.6 km/h 6.1 km/h 89% 0.0 mm 0 W/m2
22:36 14.6 °C 13.0 °C 1009.7 hPa North 5.0 km/h 7.2 km/h 90% 0.0 mm 0 W/m2
22:41 14.7 °C 13.1 °C 1009.7 hPa North 3.5 km/h 8.7 km/h 90% 0.0 mm 0 W/m2
22:46 14.7 °C 13.1 °C 1009.7 hPa NNE 6.1 km/h 8.7 km/h 90% 0.0 mm 0 W/m2
22:51 14.7 °C 13.1 °C 1009.4 hPa North 6.1 km/h 8.7 km/h 90% 0.0 mm 0 W/m2
22:56 14.7 °C 12.9 °C 1009.4 hPa North 6.1 km/h 8.7 km/h 89% 0.0 mm 0 W/m2
23:01 14.8 °C 13.0 °C 1009.4 hPa NNW 3.5 km/h 8.7 km/h 89% 0.0 mm 0 W/m2
23:06 14.9 °C 12.9 °C 1009.4 hPa NNW 3.5 km/h 8.7 km/h 88% 0.0 mm 0 W/m2
23:11 14.9 °C 12.9 °C 1009.4 hPa NNW 5.0 km/h 8.7 km/h 88% 0.0 mm 0 W/m2
23:16 15.0 °C 12.7 °C 1009.0 hPa NNW 6.1 km/h 8.7 km/h 86% 0.0 mm 0 W/m2
23:21 15.1 °C 12.6 °C 1009.0 hPa NNW 3.5 km/h 8.7 km/h 85% 0.0 mm 0 W/m2
23:26 14.9 °C 12.6 °C 1009.0 hPa NNW 3.5 km/h 7.2 km/h 86% 0.0 mm 0 W/m2
23:31 14.7 °C 12.4 °C 1009.0 hPa NNW 3.5 km/h 6.1 km/h 86% 0.0 mm 0 W/m2
23:36 14.4 °C 12.1 °C 1009.0 hPa NW 2.6 km/h 5.0 km/h 86% 0.0 mm 0 W/m2
23:41 14.3 °C 12.2 °C 1009.0 hPa NW 2.6 km/h 5.0 km/h 87% 0.0 mm 0 W/m2
23:46 14.3 °C 12.3 °C 1008.7 hPa NW 1.1 km/h 6.1 km/h 88% 0.0 mm 0 W/m2
23:51 14.3 °C 12.2 °C 1008.7 hPa NW 1.1 km/h 6.1 km/h 87% 0.0 mm 0 W/m2
Northern Hawkes Bay. New Zealand Historic Data
Compliments of Weather Underground - 2.25 mb